[[{"header":{"parameterUnit":"m.s-1","parameterCategory":1,"la1":30.2991,"la2":30.254,"lo1":-89.0895,"lo2":-89.0444,"dy":0.0017,"dx":0.0017,"nx":28,"ny":28,"refTime":"2024-07-27T09:00:00:Z","depth":0,"parameterNumber":2,"parameterNumberName":"U-component_of_WINDS"},"data":[0,0,0,0,0,0,0,0,0,0,0,0,0,0,0,0,0,0,0,0,0,0,0,0,0,0,0,0,0,0,0,0,0,0,0,0,0,0,0,0,0,0,0,0,0,0,0,0,0,0,0,0,0,0,0,0,0,0,2.3599,2.36,0,2.3712,2.3713,2.3714,2.3756,2.3755,2.3755,2.3755,2.3873,2.3876,2.388,0,0,0,0,0,0,0,0,0,0,0,0,0,2.3424,2.3427,2.3599,2.3601,2.3602,2.3711,2.3713,2.3714,2.3756,2.3755,2.3755,2.3755,2.3872,2.3876,2.388,0,0,0,0,0,0,0,0,0,0,0,0,0,2.3514,2.3428,2.3599,2.3636,2.364,2.3711,2.3713,2.3715,2.3756,2.3755,2.3755,2.3754,2.3871,2.3876,2.3881,2.3924,0,0,2.3897,2.3899,0,0,0,0,0,0,0,0,2.3509,2.3521,2.3629,2.3633,2.3638,2.3719,2.3694,2.3785,2.3756,2.3712,2.3755,2.3754,2.3822,2.3832,2.3854,2.393,2.3935,2.3897,2.39,2.3903,2.3904,0,0,0,0,0,0,0,2.3503,2.3516,2.3644,2.363,2.3636,2.3648,2.366,2.3712,2.3769,2.3716,2.3719,2.3732,2.3825,2.3849,2.3857,2.3937,2.3897,2.3902,2.3905,2.3907,2.4054,2.4055,0,0,0,0,0,0,2.349,2.3511,2.364,2.3647,2.3571,2.3651,2.3665,2.3694,2.3769,2.3779,2.3732,2.3733,2.384,2.3851,2.3861,2.3917,2.3903,2.3908,2.3911,2.4054,2.4055,2.4055,0,0,0,0,0,0,2.3486,2.3501,2.3636,2.358,2.3598,2.3655,2.3687,2.3696,2.372,2.3781,2.3792,2.3746,2.384,2.3854,2.3908,2.3922,2.391,2.3915,2.4053,2.4054,2.4055,2.4029,0,0,0,0,0,0,2.3481,2.35,2.3516,2.358,2.3601,2.3679,2.3688,2.3699,2.3729,2.3731,2.3796,2.3807,2.3841,2.39,2.3913,2.3929,2.3919,2.4052,2.4053,2.4055,2.4029,2.4029,2.4029,0,0,0,0,0,2.3475,2.3504,2.3516,2.3532,2.3622,2.368,2.3692,2.3729,2.373,2.3747,2.3786,2.3805,2.3918,2.3905,2.3921,2.3938,2.4051,2.4053,2.4055,2.4029,2.4029,2.4029,0,0,0,0,0,0,2.3441,2.3514,2.3527,2.3579,2.3623,2.3687,2.371,2.3729,2.3774,2.3775,2.3821,2.3835,2.3886,2.3918,2.3902,2.3984,2.3986,2.3991,2.3961,2.3962,2.3962,2.3953,2.3923,0,0,0,0,0,2.344,2.348,2.3541,2.3581,2.3602,2.3652,2.3679,2.3704,2.3752,2.3771,2.3814,2.386,2.3907,2.3937,2.3983,2.4034,2.4049,2.4054,2.4054,2.4054,2.4057,2.4088,2.409,2.4061,2.4061,2.4061,0,0,2.3437,2.3482,2.3504,2.3575,2.3612,2.3654,2.3667,2.3711,2.3742,2.3778,2.3831,2.3864,2.392,2.3973,2.3998,2.4001,2.4069,2.4056,2.4056,2.4059,2.409,2.4092,2.4095,2.4062,2.4062,2.4062,0,0,2.3454,2.3491,2.3528,2.3565,2.3621,2.3654,2.3663,2.3724,2.3747,2.3802,2.3829,2.3868,2.3947,2.3985,2.4015,2.4047,2.4066,2.4061,2.4062,2.4091,2.4093,2.4095,2.4107,2.411,2.4064,2.4064,2.4064,0,2.3444,2.3506,2.3545,2.3587,2.3618,2.3651,2.369,2.3724,2.3792,2.3813,2.3815,2.3914,2.3954,2.4017,2.4024,2.4047,2.406,2.4053,2.4089,2.4092,2.4095,2.4106,2.411,2.4063,2.4063,2.4063,2.4064,0,2.3491,2.3534,2.3558,2.3622,2.3655,2.3695,2.3741,2.3771,2.3793,2.3827,2.3882,2.3931,2.3987,2.4004,2.4027,2.4071,2.407,2.408,2.4083,2.4096,2.4107,2.4112,2.4062,2.4062,2.4062,2.4063,0,0,2.3489,2.3574,2.3582,2.3612,2.3676,2.3711,2.3753,2.3807,2.3832,2.3878,2.3915,2.3981,2.3991,2.4025,2.4052,2.4078,2.41,2.4085,2.4087,2.4086,2.4151,2.4143,2.4147,2.4113,2.4114,2.4115,2.4147,0,2.3514,2.3589,2.3626,2.3685,2.3726,2.3759,2.3796,2.384,2.3872,2.3913,2.3949,2.3995,2.4004,2.4025,2.4052,2.4091,2.4114,2.409,2.4149,2.415,2.4133,2.4154,2.4145,2.4172,2.4151,2.4152,2.4153,0,2.3552,2.3598,2.3661,2.3721,2.3739,2.3771,2.3825,2.3862,2.3913,2.3936,2.3973,2.4,2.4047,2.4047,2.4112,2.4095,2.4122,2.4145,2.4147,2.4154,2.4152,2.416,2.4182,2.4186,2.416,2.416,2.4159,0,2.3544,2.3621,2.3669,2.3693,2.3765,2.3786,2.3817,2.3868,2.3898,2.3945,2.3966,2.4018,2.4047,2.4087,2.4128,2.4124,2.419,2.4193,2.421,2.4209,2.4222,2.422,2.4247,2.424,2.4239,2.4239,2.4239,0,2.3568,2.3605,2.3666,2.3695,2.3739,2.3781,2.3824,2.3857,2.3902,2.3939,2.3972,2.4006,2.4058,2.41,2.4133,2.4182,2.4195,2.4215,2.4223,2.4212,2.4209,2.4229,2.4228,2.4241,2.424,2.424,2.424,0,2.3565,2.3608,2.3662,2.3725,2.3742,2.3771,2.3825,2.3856,2.389,2.3937,2.3951,2.4005,2.4056,2.41,2.4168,2.419,2.4241,2.4251,2.4223,2.4227,2.4242,2.4239,2.4282,2.429,2.4277,2.4277,2.4277,0,2.3577,2.3607,2.3673,2.37,2.373,2.3773,2.3804,2.3848,2.3879,2.394,2.3963,2.4016,2.406,2.414,2.4186,2.4238,2.425,2.4261,2.4258,2.4246,2.425,2.4247,2.4251,2.4261,2.4261,2.4261,2.4261,0,2.3594,2.3614,2.3657,2.3707,2.3743,2.3786,2.3829,2.385,2.3902,2.3936,2.3987,2.4021,2.409,2.4142,2.4199,2.4233,2.4256,2.4261,2.4268,2.4257,2.4239,2.4249,2.4222,2.426,2.426,2.426,2.426,2.426,2.3599,2.3627,2.3678,2.3725,2.3762,2.3802,2.3834,2.3872,2.3915,2.3973,2.3997,2.405,2.4102,2.418,2.4214,2.4257,2.4261,2.427,2.4273,2.4274,2.4272,2.4232,2.4267,2.4267,2.4267,2.4267,2.4268,0,2.3617,2.3652,2.3695,2.3754,2.3791,2.3809,2.3858,2.3888,2.3934,2.398,2.4023,2.4082,2.4133,2.4184,2.4238,2.4262,2.4274,2.4275,2.4274,2.4281,2.4266,2.4254,2.4265,2.4265,2.4265,2.4265,2.4264,2.4264,2.3631,2.3679,2.3705,2.3772,2.3807,2.3858,2.3884,2.3922,2.3958,2.4023,2.4065,2.4097,2.4145,2.4203,2.4251,2.4265,2.4283,2.4281,2.4298,2.4282,2.4282,2.4282,2.4271,2.4285,2.4285,2.431,2.431,2.431]},{"header":{"parameterUnit":"m.s-1","parameterCategory":1,"la1":30.2991,"la2":30.254,"lo1":-89.0895,"lo2":-89.0444,"dy":0.0017,"dx":0.0017,"nx":28,"ny":28,"refTime":"2024-07-27T09:00:00:Z","depth":0,"parameterNumber":3,"parameterNumberName":"V-component_of_WINDS"},"data":[0,0,0,0,0,0,0,0,0,0,0,0,0,0,0,0,0,0,0,0,0,0,0,0,0,0,0,0,0,0,0,0,0,0,0,0,0,0,0,0,0,0,0,0,0,0,0,0,0,0,0,0,0,0,0,0,0,0,2.3865,2.3866,0,2.3989,2.3991,2.3992,2.406,2.406,2.406,2.406,2.4186,2.4189,2.4192,0,0,0,0,0,0,0,0,0,0,0,0,0,2.3686,2.3689,2.3865,2.3866,2.3868,2.3989,2.3991,2.3992,2.406,2.406,2.406,2.406,2.4185,2.4189,2.4193,0,0,0,0,0,0,0,0,0,0,0,0,0,2.3782,2.369,2.3865,2.3916,2.3922,2.3989,2.3991,2.3993,2.406,2.406,2.406,2.406,2.4184,2.4188,2.4193,2.4217,0,0,2.4208,2.421,0,0,0,0,0,0,0,0,2.3777,2.3789,2.3907,2.3913,2.3919,2.4009,2.3974,2.4068,2.406,2.4007,2.406,2.4061,2.4127,2.4136,2.4159,2.4223,2.4229,2.4208,2.4211,2.4213,2.4215,0,0,0,0,0,0,0,2.377,2.3784,2.3914,2.3909,2.3916,2.3933,2.3947,2.3992,2.4064,2.4012,2.4017,2.4031,2.413,2.4154,2.4163,2.4231,2.4208,2.4212,2.4215,2.4217,2.4323,2.4323,0,0,0,0,0,0,2.3755,2.3778,2.391,2.3918,2.3847,2.3936,2.3952,2.398,2.4064,2.4077,2.4031,2.4034,2.4146,2.4157,2.4167,2.4202,2.4213,2.4218,2.422,2.4323,2.4323,2.4323,0,0,0,0,0,0,2.3751,2.3766,2.3905,2.3849,2.3868,2.3939,2.397,2.3982,2.4007,2.4078,2.4091,2.4042,2.4147,2.4161,2.4205,2.4207,2.422,2.4224,2.4323,2.4323,2.4323,2.4271,0,0,0,0,0,0,2.3746,2.3764,2.3774,2.3849,2.3871,2.394,2.397,2.3985,2.4015,2.402,2.4092,2.4104,2.4148,2.4197,2.421,2.4214,2.4228,2.4323,2.4323,2.4323,2.4273,2.4269,2.4266,0,0,0,0,0,2.3739,2.3754,2.3774,2.379,2.3885,2.394,2.3953,2.4003,2.4015,2.4025,2.4072,2.4102,2.4205,2.4201,2.4216,2.4222,2.4323,2.4323,2.4323,2.4274,2.427,2.4266,0,0,0,0,0,0,2.3677,2.3765,2.3788,2.3828,2.3876,2.3952,2.3966,2.3997,2.4043,2.4045,2.4106,2.4122,2.416,2.4196,2.419,2.425,2.4267,2.427,2.4226,2.4222,2.4219,2.4209,2.4232,0,0,0,0,0,2.3668,2.3706,2.3781,2.3808,2.3832,2.3895,2.3921,2.3956,2.4008,2.4029,2.4078,2.4127,2.4172,2.4199,2.4243,2.4279,2.4296,2.429,2.4287,2.4284,2.4285,2.4308,2.4306,2.4322,2.4322,2.4322,0,0,2.3649,2.3702,2.3722,2.3797,2.3839,2.3877,2.3911,2.395,2.3979,2.4035,2.408,2.4118,2.4177,2.4217,2.4238,2.4248,2.4285,2.4283,2.428,2.4284,2.4307,2.4306,2.4304,2.4322,2.4322,2.4322,0,0,2.3635,2.3679,2.3707,2.3749,2.3812,2.3854,2.3861,2.3932,2.396,2.4007,2.4049,2.4085,2.4159,2.42,2.423,2.4233,2.4263,2.4246,2.4228,2.425,2.4248,2.4247,2.4249,2.4249,2.4247,2.4247,2.4247,0,2.3604,2.3663,2.3718,2.3755,2.3787,2.384,2.387,2.3907,2.3981,2.4002,2.4013,2.4108,2.4151,2.4203,2.4204,2.4226,2.4236,2.4238,2.4244,2.4244,2.4244,2.4246,2.4247,2.4245,2.4245,2.4245,2.4246,0,2.3622,2.3663,2.3678,2.3749,2.3784,2.3816,2.3876,2.3904,2.3937,2.3978,2.4025,2.408,2.4136,2.4151,2.4183,2.4207,2.4212,2.4233,2.4251,2.4239,2.4242,2.4243,2.4241,2.4242,2.4243,2.4244,0,0,2.357,2.3673,2.3678,2.3711,2.3786,2.3818,2.3854,2.391,2.3933,2.3983,2.4015,2.4077,2.4097,2.4132,2.4169,2.4187,2.4188,2.4206,2.4208,2.4201,2.4219,2.4203,2.4203,2.4208,2.4209,2.4209,2.4214,0,2.3567,2.3634,2.3685,2.3733,2.3772,2.3824,2.3855,2.3904,2.3944,2.3983,2.4027,2.4071,2.4094,2.4115,2.4136,2.4183,2.4192,2.4183,2.4238,2.424,2.4222,2.4204,2.4187,2.4189,2.4216,2.4216,2.4216,0,2.3571,2.362,2.3672,2.3744,2.3762,2.3789,2.3846,2.3882,2.394,2.3967,2.4007,2.4045,2.4086,2.4101,2.4158,2.4151,2.4177,2.4204,2.4205,2.4212,2.4227,2.4211,2.4191,2.4191,2.4218,2.4218,2.4218,0,2.3528,2.3607,2.3649,2.3676,2.3761,2.3779,2.3815,2.3873,2.3904,2.3953,2.3974,2.4028,2.4057,2.4097,2.4149,2.4155,2.4201,2.422,2.4226,2.4224,2.4232,2.4231,2.4216,2.4249,2.4249,2.4249,2.4249,0,2.3519,2.3548,2.3631,2.3656,2.3692,2.3751,2.3784,2.3825,2.3876,2.391,2.3959,2.399,2.4057,2.4097,2.4138,2.418,2.4192,2.4216,2.4226,2.4211,2.4208,2.4229,2.423,2.4249,2.4249,2.4249,2.4249,0,2.3476,2.3533,2.3582,2.3659,2.3679,2.3701,2.3768,2.3795,2.3838,2.3881,2.3895,2.3963,2.4012,2.4068,2.4136,2.4164,2.4202,2.4218,2.4183,2.4189,2.4191,2.419,2.4189,2.4192,2.4222,2.4222,2.4221,0,2.3466,2.349,2.3571,2.3598,2.3633,2.3675,2.3708,2.3768,2.38,2.3868,2.3887,2.394,2.3986,2.4062,2.4117,2.417,2.4187,2.4183,2.4195,2.418,2.4187,2.4185,2.4188,2.4179,2.4179,2.4178,2.4178,0,2.3442,2.3469,2.3514,2.357,2.3608,2.3654,2.3703,2.3722,2.3792,2.3825,2.3877,2.3912,2.3983,2.4035,2.4095,2.4132,2.4166,2.4174,2.4178,2.4162,2.4141,2.4153,2.4174,2.4173,2.4174,2.4174,2.4174,2.4174,2.3415,2.344,2.3501,2.355,2.3593,2.3638,2.3667,2.3715,2.376,2.3822,2.3855,2.3906,2.3964,2.4048,2.4085,2.4126,2.4137,2.4143,2.4144,2.4145,2.4141,2.4135,2.4137,2.4137,2.4137,2.4138,2.4138,0,2.3394,2.3436,2.3481,2.3548,2.3587,2.3617,2.3673,2.3704,2.3748,2.38,2.3845,2.3905,2.3957,2.4017,2.4073,2.4094,2.4111,2.4107,2.4105,2.4114,2.4127,2.4118,2.4092,2.4092,2.4092,2.4092,2.4092,2.4092,2.3387,2.343,2.3465,2.3531,2.3574,2.3625,2.3654,2.3696,2.3738,2.3803,2.3847,2.3886,2.3942,2.4002,2.4051,2.4068,2.4086,2.4077,2.4097,2.4109,2.4113,2.4116,2.4108,2.408,2.408,2.4081,2.4081,2.4081]}]]